Location: Newark
(17.9939°S, 31.0481°E)
Time: 00:33:18
(UTC+00:00)

SR - All Passes

Search period start: 12 November 2019 00:00
Search period end: 22 November 2019 00:00
Orbit: 574 x 882 km, 66.7° (Epoch: 11 November)

Date Brightness Start Highest point End Pass type
(mag) Time Alt. Az. Time Alt. Az. Time Alt. Az.
12 Nov - 00:21:10 10° NE 00:24:19 16° ENE 00:27:21 10° ESE visible
12 Nov - 02:01:19 10° NW 02:06:07 35° WSW 02:10:35 10° S visible
12 Nov - 12:35:31 10° SW 12:39:44 49° WNW 12:44:14 10° N daylight
13 Nov - 01:11:10 10° NNW 01:16:32 89° SW 01:21:26 10° SSE visible
13 Nov - 11:45:53 10° S 11:50:10 57° ESE 11:54:44 10° NNE daylight
14 Nov - 00:22:06 10° N 00:26:56 36° ENE 00:31:27 10° SE visible
14 Nov - 02:05:48 10° WNW 02:08:51 16° WSW 02:11:48 10° SSW visible
14 Nov - 10:57:14 10° SSE 11:00:33 21° ESE 11:03:59 10° ENE daylight
14 Nov - 12:39:06 10° WSW 12:42:20 20° WNW 12:45:43 10° NNW daylight
14 Nov - 23:34:35 10° NE 23:37:24 14° ENE 23:40:06 10° ESE visible
15 Nov - 01:14:19 10° NW 01:19:11 38° WSW 01:23:42 10° S visible
15 Nov - 11:48:30 10° SSW 11:52:47 54° WNW 11:57:22 10° N daylight
16 Nov - 00:24:17 10° NNW 00:29:36 84° ENE 00:34:28 10° SSE visible
16 Nov - 10:58:57 10° S 11:03:13 51° ESE 11:07:45 10° NE daylight
16 Nov - 23:35:18 10° N 23:40:01 33° ENE 23:44:24 10° SE visible
17 Nov - 01:18:38 10° WNW 01:21:54 17° WSW 01:25:02 10° SSW visible
17 Nov - 10:10:25 10° SSE 10:13:35 19° ESE 10:16:52 10° ENE daylight
17 Nov - 11:51:58 10° WSW 11:55:23 22° WNW 11:58:59 10° NNW daylight
17 Nov - 22:48:05 10° NE 22:50:28 13° ENE 22:52:47 10° E visible
18 Nov - 00:27:20 10° NW 00:32:15 41° WSW 00:36:48 10° S visible
18 Nov - 11:01:30 10° SSW 11:05:50 60° WNW 11:10:29 10° N daylight
18 Nov - 23:37:23 10° NNW 23:42:39 78° ENE 23:47:30 10° SSE visible
19 Nov - 10:12:02 10° S 10:16:16 47° ESE 10:20:47 10° NE daylight
19 Nov - 22:48:31 10° N 22:53:05 30° ENE 22:57:21 10° SE visible
20 Nov - 00:31:30 10° WNW 00:34:57 18° WSW 00:38:15 10° SSW visible
20 Nov - 09:23:37 10° SSE 09:26:37 18° ESE 09:29:45 10° ENE daylight
20 Nov - 11:04:51 10° SW 11:08:27 24° WNW 11:12:14 10° NNW daylight
20 Nov - 22:01:41 10° NE 22:03:32 12° ENE 22:05:20 10° E night (unlit)
20 Nov - 23:40:21 10° NW 23:45:19 44° WSW 23:49:54 10° S visible
21 Nov - 10:14:30 10° SSW 10:18:54 67° WNW 10:23:36 10° NNE daylight
21 Nov - 22:50:30 10° NNW 22:55:43 71° ENE 23:00:31 10° SSE visible
